Regional Weather Roundup
Issued by NWS

Home | Current Version | Previous Version | Text Only | Print | Product List | Glossary On
Versions: 1 2 3 4 5 6 7 8 9 10 11 12 13 14 15 16 17 18 19 20 21 22 23 24 25 26 27 28 29 30 31 32 33 34 35 36 37 38 39 40 41 42 43 44 45 46 47 48 49 50
000
ASUS44 KOUN 041910
RWROK

WEATHER ROUNDUP FOR OKLAHOMA
NATIONAL WEATHER SERVICE NORMAN OK
200 PM CDT TUE AUG 04 2015

NOTE: "FAIR" INDICATES FEW OR NO CLOUDS BELOW 12,000 FEET WITH NO
      SIGNIFICANT WEATHER AND/OR OBSTRUCTIONS TO VISIBILITY.

OKZ001>007-009>012-014-015-017-042000-
NORTHWEST OKLAHOMA AND THE PANHANDLE

CITY           SKY/WX    TMP DP  RH WIND       PRES   REMARKS
GAGE           MOSUNNY   85  69  58 S12       29.95F
GUYMON         SUNNY     83  67  58 S9        29.96F
ENID/WOODRING  PTSUNNY   88  66  48 S22       29.93F HX  90
$$

OKZ016-021>023-033>039-044-045-042000-
SOUTHWEST OKLAHOMA

CITY           SKY/WX    TMP DP  RH WIND       PRES   REMARKS
LAWTON/REGL    LGT RAIN  84  69  60 S13       29.94F
LAWTON/FT SILL PTSUNNY   82  71  67 S15       29.93F
FREDERICK      PTSUNNY   86  70  58 S13       29.92F HX  90
CLINTON        SUNNY     87  69  54 S16       29.97F HX  91
HOBART         SUNNY     89  69  51 S17       29.95F HX  93
ALTUS AFB      MOSUNNY   85  69  59 S10       29.94F
$$

OKZ018>020-024>031-042000-
CENTRAL OKLAHOMA

CITY           SKY/WX    TMP DP  RH WIND       PRES   REMARKS
OKLAHOMA CITY  CLOUDY    81  71  71 S8        29.96F
OKC/WILEY POST CLOUDY    82  69  64 S15       29.96F
OKC/TINKER AFB CLOUDY    79  72  78 S7        29.95F
STILLWATER     CLOUDY    80  69  69 S6        29.96F
GUTHRIE        PTSUNNY   83  69  62 S15       29.95F
$$

OKZ008-013-054>072-042000-
NORTHEAST OKLAHOMA

CITY           SKY/WX    TMP DP  RH WIND       PRES   REMARKS
TULSA          CLOUDY    81  69  67 E6        29.97S
TULSA/JONES    CLOUDY    80  68  66 S6        29.98F
PONCA CITY     CLOUDY    74  71  91 NE5       29.97F FOG
BARTLESVILLE   LGT RAIN  76  74  93 NE5       30.00F
MUSKOGEE       CLOUDY    83  71  67 W3        29.99F
$$

OKZ032-040>043-046>053-073>077-042000-
SOUTH CENTRAL/SOUTHEAST OKLAHOMA

CITY           SKY/WX    TMP DP  RH WIND       PRES   REMARKS
ARDMORE/DWNTWN CLOUDY    79  70  73 SE5       29.96S
MCALESTER      CLOUDY    86  69  56 VRB6      29.96F HX  90
$$




USA.gov is the U.S. government's official web portal to all federal, state and local government web resources and services.